sat.trackr.live / text

‹ back to catalog

STARLINK-32192

NORAD 60316 · 2024-133R

PAYLOAD ACTIVE UNKNOWN

§ Identity

Operator
Country
US
Launch date
2024-07-28
Launch site
AFWTR
Launch vehicle
Mass (kg)
RCS (m²)

Purposes: comms

External: N2YO · Heavens-Above · Gunter

§ Orbital elements

Epoch: 2026-05-25T03:49:15.850272Z

Period
94.11 min
Inclination
53.1600°
Eccentricity
0.0001285
Mean motion
15.30189572 rev/d
Perigee alt
474.4 km
Apogee alt
476.1 km
Semi-major
6,853.4 km
B*
3.3268e-5
RAAN
301.4789°
Arg perigee
95.3248°
Mean anomaly
264.7899°
Rev number
10,344

§ Raw data

STARLINK-321921 60316U 24133R   26145.15921123  .00000626  00000+0  33268-4 0  99902 60316  53.1600 301.4789 0001285  95.3248 264.7899 15.30189572103440

JSON: /api/v1/satellites/60316 · /tle

For live sub-satellite position, see the globe view (requires WebGL).

§ Visibility from observer

Set your observer location to see the next 7 days of passes ≥ 10°. The values pass through the URL so the page stays shareable.

No JS? Fill the form by hand. The geolocation button needs JavaScript.